Simultaneous Nadir Overpasses (SNOs) Predictions

Prediction of SNOs near equator between AQUA and NPP Satellite Orbit:

Table of predicted SNOs near equator for the next 14.0 days since TLE Epoch: 5/25/2013
Index Date (AQUA) Time (AQUA) AQUA Lat,Lon Date (NPP) Time (NPP) NPP Lat,Lon Distance(km) Time Diff (sec)
1 05/26/2013 16:33:03 -29.98, 130.99 05/26/2013 16:23:03 -30.39, 130.14 93.82 600
2 05/26/2013 17:15:03 2.81, -55.17 05/26/2013 17:05:59 2.64, -55.84 77.35 544
3 05/29/2013 08:42:51 -5.90,-107.57 05/29/2013 08:32:57 -5.77,-108.06 56.46 594
4 05/29/2013 09:31:05 1.25, 61.04 05/29/2013 09:22:27 1.09, 60.28 86.31 518
5 06/01/2013 00:58:52 -4.27, 8.66 06/01/2013 00:49:25 -4.17, 8.07 65.66 567
6 06/01/2013 01:47:07 -0.32, 177.25 06/01/2013 01:38:55 -0.51, 176.42 95.48 492
7 06/03/2013 16:33:03 29.96, -49.02 06/03/2013 16:23:03 30.17, -49.80 78.90 600
8 06/03/2013 17:14:53 -2.67, 124.88 06/03/2013 17:05:52 -2.52, 124.22 74.99 541
9 06/06/2013 08:42:45 5.54, 72.50 06/06/2013 08:32:56 5.42, 72.02 54.86 589
10 06/06/2013 09:30:53 -1.05,-118.89 06/06/2013 09:22:19 -0.88,-119.63 84.62 514




NCC Satellite Simultaneous Nadir Overpasses (SNOs) Prediction Service
